Morris, IL

10:45 AM CDT on June 27, 2017 (GMT -0500)
Morris

Weather History for KC09 - February, 2014

Change the Weather History Date:

Friday, February 21, 2014

  Actual Average (KARR) Record (KARR)
Temperature  
Mean Temperature 32 °F -  
Max Temperature 36 °F 35 °F 65 °F (2017)
Min Temperature 28 °F 21 °F 4 °F (2008)
Degree Days  
Heating Degree Days 33    
Moisture  
Dew Point 21 °F    
Average Humidity 63    
Maximum Humidity 85    
Minimum Humidity 45    
Precipitation  
Precipitation 0.00 in - - ()
Sea Level Pressure  
Sea Level Pressure 29.67 in    
Wind  
Wind Speed 23 mph (WSW)    
Max Wind Speed 33 mph    
Max Gust Speed 43 mph    
Visibility 10 miles    
Events Snow    
Averages and records for this station are not official NWS values.
T = Trace of Precipitation, MM = Missing Value Source: NWS Daily Summary

Daily Weather History Graph

Daily Weather History Graph

Search for Another Location

Airport or City:

Trip Planner

Search our weather history database for the weather conditions in past years. The results will help you decide how hot, cold, wet, or windy it might be!

Date:

Astronomy

Feb. 21, 2014 Rise Set
Actual Time 6:40 AM CST 5:34 PM CST
Civil Twilight 6:12 AM CST 6:02 PM CST
Nautical Twilight 5:40 AM CST 6:35 PM CST
Astronomical Twilight 5:08 AM CST 7:07 PM CST
Moon No Moon Rise 9:59 AM CST (2/21)
Length of Visible Light 11h 50m
Length of Day
10h 54m
Waning Gibbous, 60% of the Moon is Illuminated
Feb 21
Waning Gibbous
Feb 22
Last Quarter
Mar 1
New
Mar 8
First Quarter
Mar 16
Full

Hourly Weather History & Observations

Time (CST) Temp. Windchill Dew Point Humidity Pressure Visibility Wind Dir Wind Speed Gust Speed Precip Events Conditions
12:15 AM 36.7 °F 25.4 °F 28.4 °F 72% 29.40 in 10.0 mi WSW 23.0 mph 34.5 mph N/A   Overcast
12:35 AM 36.5 °F 25.2 °F 28.4 °F 72% 29.41 in 10.0 mi WSW 23.0 mph 28.8 mph N/A   Overcast
12:55 AM 36.3 °F 25.5 °F 28.6 °F 74% 29.42 in 10.0 mi WSW 20.7 mph 29.9 mph N/A   Overcast
1:15 AM 36.1 °F 25.5 °F 28.9 °F 75% 29.43 in 10.0 mi WSW 19.6 mph 26.5 mph N/A   Overcast
1:35 AM 36.5 °F 23.5 °F 28.2 °F 72% 29.44 in 10.0 mi WSW 31.1 mph 35.7 mph N/A   Overcast
1:55 AM 36.0 °F 23.0 °F 27.7 °F 72% 29.46 in 10.0 mi WSW 29.9 mph 38.0 mph N/A   Overcast
2:15 AM 35.6 °F 23.2 °F 27.3 °F 72% 29.48 in 10.0 mi WSW 26.5 mph 35.7 mph N/A   Overcast
2:35 AM 35.1 °F 22.7 °F 27.5 °F 74% 29.49 in 10.0 mi WSW 25.3 mph 33.4 mph N/A   Overcast
2:55 AM 34.9 °F 21.3 °F 26.2 °F 71% 29.48 in 10.0 mi WSW 31.1 mph 39.1 mph N/A Snow Light Snow
3:15 AM 34.3 °F 22.0 °F 27.5 °F 76% 29.49 in 7.0 mi WSW 24.2 mph 29.9 mph N/A Snow Light Snow
3:35 AM 33.3 °F 20.1 °F 27.3 °F 79% 29.49 in 7.0 mi WSW 26.5 mph 38.0 mph N/A Snow Light Snow
3:55 AM 33.1 °F 19.8 °F 26.6 °F 77% 29.50 in 7.0 mi WSW 26.5 mph 35.7 mph N/A   Overcast
4:15 AM 32.9 °F 20.1 °F 27.9 °F 82% 29.51 in 5.0 mi WSW 24.2 mph 32.2 mph N/A Snow Light Snow
4:35 AM 32.2 °F 18.4 °F 25.5 °F 76% 29.52 in 10.0 mi West 27.6 mph 39.1 mph N/A   Overcast
4:55 AM 31.8 °F 18.1 °F 26.8 °F 82% 29.53 in 5.0 mi WSW 26.5 mph 31.1 mph N/A Snow Light Snow
5:15 AM 31.6 °F 19.3 °F 27.1 °F 83% 29.54 in 4.0 mi West 20.7 mph 28.8 mph N/A   Overcast
5:35 AM 31.1 °F 17.4 °F 27.0 °F 85% 29.55 in 5.0 mi West 25.3 mph 31.1 mph N/A   Overcast
5:55 AM 31.6 °F 17.9 °F 25.2 °F 77% 29.56 in 7.0 mi West 26.5 mph 38.0 mph N/A   Overcast
6:15 AM 31.1 °F 17.4 °F 23.0 °F 72% 29.56 in 10.0 mi WSW 25.3 mph 38.0 mph N/A   Overcast
6:35 AM 30.6 °F 16.2 °F 21.9 °F 70% 29.58 in 10.0 mi West 27.6 mph 35.7 mph N/A   Overcast
6:55 AM 30.0 °F 14.9 °F 21.7 °F 71% 29.58 in 10.0 mi West 29.9 mph 36.8 mph N/A   Overcast
7:15 AM 30.4 °F 15.0 °F 20.5 °F 67% 29.58 in 10.0 mi West 32.2 mph 41.4 mph N/A   Overcast
7:35 AM 30.2 °F 15.2 °F 19.6 °F 65% 29.60 in 10.0 mi West 29.9 mph 42.6 mph N/A   Overcast
7:55 AM 30.2 °F 14.7 °F 19.9 °F 66% 29.60 in 10.0 mi WSW 32.2 mph 39.1 mph N/A   Overcast
8:15 AM 29.3 °F 14.0 °F 18.1 °F 63% 29.61 in 10.0 mi West 29.9 mph 42.6 mph N/A   Overcast
8:35 AM 29.7 °F 15.2 °F 18.9 °F 64% 29.61 in 10.0 mi WSW 26.5 mph 35.7 mph N/A   Overcast
8:55 AM 29.7 °F 15.0 °F 18.5 °F 63% 29.62 in 10.0 mi WSW 27.6 mph 35.7 mph N/A   Mostly Cloudy
9:15 AM 28.4 °F 12.5 °F 16.2 °F 60% 29.63 in 10.0 mi West 31.1 mph 41.4 mph N/A   Scattered Clouds
9:35 AM 28.4 °F 12.5 °F 16.7 °F 62% 29.64 in 10.0 mi West 31.1 mph 39.1 mph N/A   Clear
9:55 AM 29.3 °F 15.3 °F 17.4 °F 61% 29.65 in 10.0 mi West 24.2 mph 39.1 mph N/A   Clear
10:15 AM 29.8 °F 15.2 °F 17.1 °F 59% 29.66 in 10.0 mi West 27.6 mph 34.5 mph N/A   Clear
10:35 AM 30.0 °F 14.7 °F 17.2 °F 59% 29.67 in 10.0 mi WSW 31.1 mph 41.4 mph N/A   Scattered Clouds
10:55 AM 30.4 °F 15.7 °F 17.8 °F 60% 29.68 in 10.0 mi West 28.8 mph 35.7 mph N/A   Scattered Clouds
11:15 AM 30.9 °F 16.9 °F 18.5 °F 60% 29.69 in 10.0 mi WSW 26.5 mph 38.0 mph N/A   Scattered Clouds
11:35 AM 31.1 °F 15.7 °F 17.8 °F 58% 29.69 in 10.0 mi WSW 33.4 mph 40.3 mph N/A   Clear
11:55 AM 31.6 °F 18.1 °F 18.9 °F 59% 29.70 in 10.0 mi West 25.3 mph 40.3 mph N/A   Clear
12:15 PM 32.0 °F 18.9 °F 18.1 °F 57% 29.70 in 10.0 mi WSW 24.2 mph 36.8 mph N/A   Clear
12:35 PM 32.0 °F 17.9 °F 17.1 °F 54% 29.70 in 10.0 mi WSW 28.8 mph 38.0 mph N/A   Clear
12:55 PM 32.2 °F 18.4 °F 16.2 °F 52% 29.70 in 10.0 mi WSW 27.6 mph 35.7 mph N/A   Clear
1:15 PM 32.7 °F 20.1 °F 15.3 °F 49% 29.71 in 10.0 mi WSW 23.0 mph 31.1 mph N/A   Clear
1:35 PM 32.4 °F 20.0 °F 14.7 °F 48% 29.71 in 10.0 mi West 21.9 mph 33.4 mph N/A   Clear
1:55 PM 32.9 °F 20.7 °F 15.1 °F 48% 29.71 in 10.0 mi West 21.9 mph 31.1 mph N/A   Clear
2:15 PM 33.4 °F 20.8 °F 14.2 °F 45% 29.71 in 10.0 mi West 24.2 mph 35.7 mph N/A   Clear
2:35 PM 33.8 °F 22.5 °F 15.8 °F 48% 29.71 in 10.0 mi West 19.6 mph 28.8 mph N/A   Clear
2:55 PM 34.5 °F 24.1 °F 18.0 °F 51% 29.73 in 10.0 mi WSW 17.3 mph - N/A   Clear
3:15 PM 34.9 °F 24.2 °F 17.4 °F 49% 29.73 in 10.0 mi West 18.4 mph 25.3 mph N/A   Clear
3:35 PM 35.1 °F 25.2 °F 17.2 °F 48% 29.74 in 10.0 mi West 16.1 mph 26.5 mph N/A   Clear
3:55 PM 35.1 °F 24.8 °F 18.5 °F 51% 29.75 in 10.0 mi West 17.3 mph - N/A   Clear
4:15 PM 35.4 °F 26.0 °F 19.4 °F 52% 29.76 in 10.0 mi WSW 15.0 mph 18.4 mph N/A   Clear
4:35 PM 35.6 °F 25.5 °F 19.6 °F 52% 29.77 in 10.0 mi WSW 17.3 mph - N/A   Clear
4:55 PM 35.4 °F 26.4 °F 19.9 °F 53% 29.78 in 10.0 mi WSW 13.8 mph - N/A   Clear
5:15 PM 34.9 °F 25.3 °F 20.8 °F 57% 29.78 in 10.0 mi WSW 15.0 mph 20.7 mph N/A   Clear
5:35 PM 35.1 °F 24.8 °F 21.2 °F 57% 29.78 in 10.0 mi WSW 17.3 mph - N/A   Scattered Clouds
5:55 PM 34.9 °F 24.9 °F 21.4 °F 58% 29.78 in 10.0 mi WSW 16.1 mph - N/A   Mostly Cloudy
6:15 PM 35.2 °F 25.8 °F 21.9 °F 58% 29.79 in 10.0 mi WSW 15.0 mph - N/A   Overcast
6:35 PM 35.1 °F 25.2 °F 22.1 °F 59% 29.81 in 10.0 mi WSW 16.1 mph 19.6 mph N/A   Overcast
6:55 PM 35.2 °F 25.4 °F 22.1 °F 59% 29.81 in 10.0 mi WSW 16.1 mph - N/A   Mostly Cloudy
7:15 PM 35.6 °F 26.6 °F 22.6 °F 59% 29.81 in 10.0 mi SW 13.8 mph - N/A   Overcast
7:35 PM 34.7 °F 26.4 °F 22.5 °F 61% 29.80 in 10.0 mi WSW 11.5 mph - N/A   Mostly Cloudy
7:55 PM 34.0 °F 26.6 °F 22.8 °F 64% 29.80 in 10.0 mi WSW 9.2 mph - N/A   Mostly Cloudy
8:15 PM 32.9 °F 26.7 °F 22.8 °F 66% 29.81 in 10.0 mi SW 6.9 mph - N/A   Mostly Cloudy
8:35 PM 33.8 °F 27.0 °F 22.8 °F 64% 29.81 in 10.0 mi SW 8.1 mph - N/A   Overcast
8:55 PM 33.6 °F 26.8 °F 23.0 °F 65% 29.82 in 10.0 mi West 8.1 mph - N/A   Overcast
9:15 PM 33.3 °F 25.7 °F 23.0 °F 66% 29.82 in 10.0 mi WSW 9.2 mph - N/A   Mostly Cloudy
9:35 PM 33.8 °F 26.4 °F 22.8 °F 64% 29.83 in 10.0 mi West 9.2 mph - N/A   Overcast
9:55 PM 32.7 °F 25.0 °F 22.6 °F 66% 29.84 in 10.0 mi West 9.2 mph - N/A   Mostly Cloudy
10:15 PM 32.2 °F 21.8 °F 21.0 °F 63% 29.84 in 10.0 mi WNW 15.0 mph 18.4 mph N/A   Mostly Cloudy
10:35 PM 31.8 °F 22.8 °F 17.8 °F 56% 29.84 in 10.0 mi WNW 11.5 mph - N/A   Scattered Clouds
10:55 PM 31.8 °F 22.3 °F 17.2 °F 55% 29.84 in 10.0 mi WNW 12.7 mph - N/A   Mostly Cloudy
11:15 PM 31.1 °F 22.4 °F 16.5 °F 55% 29.85 in 10.0 mi WNW 10.4 mph - N/A   Overcast
11:35 PM 30.4 °F 24.5 °F 16.9 °F 57% 29.85 in 10.0 mi WNW 5.8 mph - N/A   Mostly Cloudy
11:55 PM 29.1 °F 23.0 °F 16.0 °F 58% 29.85 in 10.0 mi West 5.8 mph - N/A   Scattered Clouds